Overview Statistics Trail Chart Weather Telemetry Raw packets
 

This is the latest recevied weather packets stored in our database for station/object WA5TET. If no packets are shown the sender has not sent any weather packets the latest 10 day(s).

<< 102 103 104 105 106 107 108 >>
Time Temp. Humidity Pressure Rain* Wind** Luminosity Snow
1787843201 31.67° C 57% 1014.9 hPa 0 mm - 547 W/m² -
1787842901 31.11° C 58% 1014.8 hPa 0 mm - 533 W/m² -
1787842595 31.11° C 59% 1014.7 hPa 0 mm - 515 W/m² -
1787842296 30.56° C 60% 1014.8 hPa 0 mm - 494 W/m² -
1787841995 31.11° C 59% 1014.8 hPa 0 mm - 161 W/m² -
1787841691 30.56° C 59% 1014.7 hPa 0 mm - 455 W/m² -
1787841390 30.56° C 60% 1014.7 hPa 0 mm - 433 W/m² -
1787841085 30° C 61% 1014.8 hPa 0 mm - 421 W/m² -
1787840780 30° C 62% 1014.8 hPa 0 mm - 123 W/m² -
1787840476 29.44° C 63% 1014.7 hPa 0 mm - 207 W/m² -
1787840171 30° C 62% 1014.8 hPa 0 mm - 346 W/m² -
1787839871 30° C 63% 1014.8 hPa 0 mm - 129 W/m² -
1787839566 30° C 63% 1014.7 hPa 0 mm - 201 W/m² -
1787839266 29.44° C 64% 1014.5 hPa 0 mm - 289 W/m² -
1787838960 28.89° C 65% 1014.5 hPa 0 mm - 267 W/m² -
1787838660 28.89° C 66% 1014.5 hPa 0 mm - 250 W/m² -
1787838358 28.33° C 68% 1014.5 hPa 0 mm - 230 W/m² -
1787838057 28.33° C 68% 1014.6 hPa 0 mm - 208 W/m² -
1787837757 27.78° C 70% 1014.4 hPa 0 mm - 191 W/m² -
1787837452 27.22° C 71% 1014.2 hPa 0 mm - 174 W/m² -
1787837147 27.22° C 72% 1014.5 hPa 0 mm - 154 W/m² -
1787836846 27.22° C 73% 1014.2 hPa 0 mm - 83 W/m² -
1787836542 27.22° C 73% 1014.4 hPa 0 mm - 78 W/m² -
1787836236 26.67° C 74% 1014.3 hPa 0 mm - 74 W/m² -
1787835933 26.67° C 74% 1014.3 hPa 0 mm - 67 W/m² -

* Rain latest hour (hover to see other rain measurements)
** Current wind speed in m/s (hover to see current wind gust speed)